This is the latest recevied weather packets stored in our database for station/object W0VI. If no packets are shown the sender has not sent any weather packets the latest 10 day(s).
| Time | Temp. | Humidity | Pressure | Rain* | Wind** | Luminosity | Snow |
|---|---|---|---|---|---|---|---|
| 1787463598 | 13.33° C | 88% | 1020.6 hPa | 0 mm | - | 0 W/m² | - |
| 1787463294 | 13.33° C | 88% | 1020.6 hPa | 0 mm | - | 0 W/m² | - |
| 1787462990 | 13.89° C | 88% | 1020.5 hPa | 0 mm | - | 0 W/m² | - |
| 1787462688 | 13.89° C | 89% | 1020.6 hPa | 0 mm | - | 0 W/m² | - |
| 1787462383 | 13.33° C | 88% | 1020.5 hPa | 0 mm | - | 0 W/m² | - |
| 1787462078 | 12.78° C | 87% | 1020.4 hPa | 0 mm | - | 0 W/m² | - |
| 1787461773 | 13.33° C | 86% | 1020.5 hPa | 0 mm | - | 0 W/m² | - |
| 1787461468 | 13.33° C | 86% | 1020.4 hPa | 0 mm | - | 0 W/m² | - |
| 1787461163 | 13.89° C | 85% | 1020.6 hPa | 0 mm | - | 0 W/m² | - |
| 1787460859 | 13.89° C | 85% | 1020.6 hPa | 0 mm | - | 0 W/m² | - |
| 1787460555 | 13.89° C | 84% | 1020.3 hPa | 0 mm | - | 0 W/m² | - |
| 1787460251 | 14.44° C | 84% | 1020.3 hPa | 0 mm | - | 0 W/m² | - |
| 1787459948 | 14.44° C | 83% | 1020.3 hPa | 0 mm | - | 0 W/m² | - |
| 1787459644 | 14.44° C | 82% | 1020.3 hPa | 0 mm | - | 0 W/m² | - |
| 1787459342 | 15° C | 81% | 1020.3 hPa | 0 mm | - | 0 W/m² | - |
| 1787459038 | 15° C | 81% | 1020.6 hPa | 0 mm | - | 0 W/m² | - |
| 1787458731 | 15° C | 80% | 1020.3 hPa | 0 mm | - | 0 W/m² | - |
| 1787458430 | 15° C | 80% | 1020.5 hPa | 0 mm | - | 0 W/m² | - |
| 1787458126 | 15° C | 80% | 1020.5 hPa | 0 mm | - | 0 W/m² | - |
| 1787457822 | 15.56° C | 80% | 1020.4 hPa | 0 mm | - | 0 W/m² | - |
| 1787457517 | 15.56° C | 79% | 1020.4 hPa | 0 mm | - | 0 W/m² | - |
| 1787457212 | 15.56° C | 79% | 1020.4 hPa | 0 mm | - | 0 W/m² | - |
| 1787456908 | 15.56° C | 80% | 1020.4 hPa | 0 mm | - | 0 W/m² | - |
| 1787456603 | 15° C | 81% | 1020.3 hPa | 0 mm | - | 0 W/m² | - |
| 1787456299 | 15° C | 81% | 1020.2 hPa | 0 mm | - | 0 W/m² | - |
* Rain latest hour (hover to see other rain measurements)
** Current wind speed in m/s (hover to see current wind gust speed)